Location: Unspecified
(0.0000°N, 0.0000°E)
Time: 14:01:02
(UTC+01:00)

Tiangong 1 - Visible Passes

Search period start: 17 January 2017 00:00
Search period end: 27 January 2017 00:00
Orbit: 344 x 365 km, 42.8° (Epoch: 17 January)

Date Brightness Start Highest point End Pass type
(mag) Time Alt. Az. Time Alt. Az. Time Alt. Az.
17 Jan 1.4 19:43:23 10° SW 19:46:19 56° NW 19:49:13 10° NE visible
19 Jan 3.6 06:00:53 10° N 06:02:36 15° NE 06:04:23 10° E visible
20 Jan 0.8 06:27:05 15° NW 06:29:25 78° SW 06:32:22 10° SE visible
21 Jan 3.8 05:21:37 16° E 05:21:37 16° E 05:22:40 10° E visible
22 Jan 1.9 05:47:45 37° S 05:47:45 37° S 05:49:56 10° SSE visible
